Location: Bartlow
(52.0833°N, 0.3167°E)
Time: 13:14:55
(UTC+00:00)

CZ-2C R/B - Pass Details

Date: 26 September 2023
Orbit: 784 x 869 km, 98.3° (Epoch: 28 November)

Event Time Altitude Azimuth Distance (km) Brightness Sun altitude
Exits shadow 01:27:02 26° 75° (ENE) 1,533 4.3 -35.1°
Maximum altitude 01:27:53 27° 59° (ENE) 1,492 4.4 -35.1°
Drops below altitude 10° 01:32:15 10° 3° (N) 2,391 5.7 -34.7°
Sets 01:34:54 0° 352° (N) 3,339 6.4 -34.5°
